Hourly Data Report for July 09, 2017

PITT MEADOWS CS
BRITISH COLUMBIA

49°12'29.964" N
122°41'24.076" W
5.00 m
1106178
71775
WMM

Download Data

Hourly Data (July 2017)
Hourly Data Report for July 9, 2017
TIME
LST
Temp Definition
°C
Dew Point Definition
°C
Rel Hum Definition
%
Precip. Amount Definition
mm

Wind Dir Definition
10's deg

Wind Spd Definition
km/h
Visibility Definition
km
Stn Press Definition
kPa
Hmdx Definition


Wind Chill Definition


Weather Definition


00:00 17.6 12.4 72 0.0 14 3   101.65     LegendNANA
01:00 16.3 13.1 81 0.0 13 1   101.68     LegendNANA
02:00 15.4 12.0 80 0.0 13 3   101.70     LegendNANA
03:00 15.6 11.3 76 0.0 11 3   101.71     LegendNANA
04:00 14.6 10.7 77 0.0 16 3   101.76     LegendNANA
05:00 15.6 12.0 79 0.0 7 2   101.80     LegendNANA
06:00 16.1 10.8 71 0.0 13 3   101.83     LegendNANA
07:00 17.5 11.2 66 0.0 14 6   101.85     LegendNANA
08:00 18.6 11.5 63 0.0 14 6   101.86     LegendNANA
09:00 19.9 10.9 56 0.0 14 6   101.86     LegendNANA
10:00 21.7 11.1 51 0.0 12 6   101.86     LegendNANA
11:00 23.6 12.4 49 0.0 15 4   101.86 26   LegendNANA
12:00 23.7 12.1 48 0.0 8 4   101.84 26   LegendNANA
13:00 25.2 12.1 44 0.0 10 4   101.81 28   LegendNANA
14:00 26.4 12.9 43 0.0 21 6   101.77 29   LegendNANA
15:00 25.5 12.4 44 0.0 19 7   101.74 28   LegendNANA
16:00 25.3 13.4 48 0.0 20 9   101.67 28   LegendNANA
17:00 25.1 12.8 46 0.0 17 10   101.63 28   LegendNANA
18:00 25.0 12.8 47 0.0 19 7   101.59 28   LegendNANA
19:00 23.9 12.6 49 0.0 22 6   101.57 26   LegendNANA
20:00 21.2 12.8 59 0.0 21 6   101.55     LegendNANA
21:00 19.8 13.2 66 0.0 21 5   101.58     LegendNANA
22:00 18.7 13.5 72 0.0 20 5   101.57     LegendNANA
23:00 18.2 13.8 76 0.0 19 4   101.55     LegendNANA

Notes on Data Quality.

Legend

  • E = Estimated
  • M = Missing
  • NA = Not Available*
  • [empty] = Indicates an unobserved value
Date modified: